CAPE
0 0 0 0 0 0 0 0 0 0 0 0 0 0 0 0 0 0 0 0 0 0 0 0 0 0 0 0 0 0 0 13 46 3 22 28 23 99 4 9 21 34 112 165 176
0 0 0 0 0 0 0 0 0 0 0 0 0 0 0 0 0 0 0 0 0 0 0 0 0 0 0 0 0 0 0 13 32 52 4 41 45 21 41 53 18 46 196 411 252
0 0 0 0 0 0 0 0 0 0 0 0 0 0 0 0 0 0 0 0 0 0 0 0 0 0 0 0 0 0 0 0 0 0 36 50 63 19 63 5 83 66 93 588 579
0 0 0 0 0 0 0 0 0 0 0 0 0 0 0 0 0 0 0 0 0 0 0 0 0 0 0 0 0 0 0 0 4 0 1 40 83 15 83 23 100 60 87 497 682
0 0 0 0 0 0 0 0 0 0 0 0 0 0 0 0 0 0 0 0 0 0 0 0 0 0 2 2 0 0 0 0 0 3 29 47 59 50 15 47 39 142 222 300 681
0 0 0 0 0 0 0 0 0 0 0 0 0 0 0 0 0 0 0 0 0 0 0 0 0 0 0 0 0 0 0 0 0 29 2 4 46 17 21 53 113 323 436 365 579
0 0 0 0 0 0 0 0 0 0 0 0 0 0 0 0 0 0 0 0 0 0 0 0 0 0 0 0 0 0 0 0 0 0 46 3 19 23 27 77 147 354 627 623 404
0 0 0 0 0 0 0 0 0 0 0 0 0 0 0 0 0 0 0 0 0 0 0 0 0 0 0 0 0 0 1 0 0 0 8 0 1 0 36 109 114 263 656 782 722
0 0 0 0 0 0 0 0 0 0 0 0 0 0 0 0 0 0 0 0 0 0 0 0 0 0 0 0 0 6 1 23 19 0 4 0 6 2 4 7 12 154 680 865 1051
0 0 0 0 0 0 0 0 0 0 0 0 0 0 0 0 0 0 0 0 0 0 0 0 0 0 0 8 0 0 9 3 14 1 0 13 35 28 0 0 10 181 713 990 1085
0 0 0 0 0 0 0 0 0 0 0 0 0 0 0 0 0 0 0 0 0 0 0 0 0 2 0 0 0 0 0 4 17 0 0 0 0 0 0 0 15 414 784 1057 1056
0 0 0 0 0 0 0 0 0 0 0 0 0 0 0 0 0 0 0 0 0 0 0 0 0 0 0 0 0 0 20 0 0 0 0 0 0 7 0 11 128 404 717 1002 1157
0 0 0 0 0 0 0 0 0 0 0 0 0 0 0 0 0 0 0 0 0 0 0 0 0 0 0 0 2 0 3 0 0 0 0 0 2 7 4 206 354 516 782 883 843
0 0 0 0 0 0 0 0 0 0 0 0 0 0 0 0 0 0 0 0 0 0 0 0 0 0 0 20 0 28 0 0 0 0 19 0 5 42 10 18 54 266 235 145 105
0 0 0 0 0 0 0 0 0 0 0 0 0 0 0 0 0 0 0 0 0 0 0 3 0 0 3 7 0 0 0 0 0 0 0 1 0 65 18 74 41 70 79 83 88
0 0 0 0 0 0 0 0 0 0 0 0 0 0 0 0 0 0 0 0 0 0 0 3 0 0 11 0 0 0 6 8 2 13 25 2 0 47 0 4 75 70 50 72 71
0 0 0 0 0 0 0 0 0 0 0 0 0 0 0 0 0 0 0 0 0 0 0 0 0 0 0 0 31 9 0 22 16 8 23 0 0 25 0 0 0 0 5 41 99
0 0 0 0 0 0 0 0 0 0 0 0 0 0 0 0 0 0 0 0 0 0 45 13 7 0 0 0 10 45 25 13 21 34 6 0 3 16 0 0 0 0 0 0 19
0 0 0 0 0 0 0 0 0 0 0 0 0 0 0 0 0 0 0 0 0 0 0 26 43 0 0 0 0 50 36 21 124 50 30 35 47 70 0 8 16 18 25 35 43
0 0 0 0 0 0 0 0 0 0 0 0 0 0 0 0 0 0 0 0 0 0 16 55 51 20 0 0 4 54 0 67 9 46 38 8 44 0 0 0 0 0 5 21 73
0 0 0 0 0 0 0 0 0 0 0 0 0 0 0 0 0 0 0 0 0 0 0 6 21 51 3 27 84 82 34 29 31 83 33 48 47 12 0 0 0 0 2 9 73
0 0 0 0 0 0 0 0 0 0 0 0 0 0 0 0 0 0 0 28 20 24 0 61 154 160 2 53 5 2 36 25 16 2 4 34 52 6 2 5 5 1 63 83 45
0 0 0 0 0 0 0 0 0 0 0 0 0 0 0 0 0 0 0 94 54 0 55 133 10 48 129 121 2 0 8 22 63 113 35 72 60 0 17 17 103 80 47 70 37
0 0 0 0 0 0 0 0 0 0 0 0 0 0 0 0 2 19 4 83 151 235 0 90 151 91 54 58 131 82 82 64 36 47 46 42 25 37 75 28 62 69 81 80 94
0 0 0 0 0 0 0 0 0 0 0 0 0 0 0 2 47 75 113 145 161 2 143 655 215 179 123 59 23 53 68 69 57 50 27 34 43 66 94 40 87 102 79 81 102
0 0 0 0 0 0 0 0 0 0 0 0 0 0 0 22 36 127 195 207 276 220 347 431 372 263 139 129 89 104 79 35 51 40 38 67 54 31 56 105 148 147 67 59 30
0 0 0 0 0 0 0 0 0 0 0 0 0 1 0 38 52 155 162 134 215 201 339 316 209 220 102 207 201 76 39 44 11 18 32 45 49 58 131 210 196 111 108 160 228
CIN
0 0 0 0 0 0 0 0 0 0 0 0 0 0 0 0 0 0 0 0 0 0 0 0 0 0 0 0 0 0 0 -30 -10 -3 -13 -8 -28 -5 -3 -5 -3 -9 -5 -7 -45
0 0 0 0 0 0 0 0 0 0 0 0 0 0 0 0 0 0 0 0 0 0 0 0 0 0 0 0 0 0 0 -12 -10 -7 -25 -4 -29 -3 -15 -6 -2 -2 -16 -17 -49
0 0 0 0 0 0 0 0 0 0 0 0 0 0 0 0 0 0 0 0 0 0 0 0 0 0 0 0 0 0 0 0 0 0 -8 -7 -5 -3 -15 -4 -5 -5 -4 -13 -28
0 0 0 0 0 0 0 0 0 0 0 0 0 0 0 0 0 0 0 0 0 0 0 0 0 0 0 0 0 0 0 0 -2 0 -1 -9 -3 -7 -19 -127 -8 -3 -2 -4 -22
0 0 0 0 0 0 0 0 0 0 0 0 0 0 0 0 0 0 0 0 0 0 0 0 0 0 -5 -2 0 0 0 0 0 -1 -7 -4 -6 -1 -68 -4 -15 -3 -3 -3 -4
0 0 0 0 0 0 0 0 0 0 0 0 0 0 0 0 0 0 0 0 0 0 0 0 0 0 0 0 0 0 0 0 0 -4 -2 -3 -9 -12 -26 -8 -3 -6 -5 -3 -2
0 0 0 0 0 0 0 0 0 0 0 0 0 0 0 0 0 0 0 0 0 0 0 0 0 0 0 0 0 0 0 0 0 0 -3 -17 -10 -9 -8 -6 -3 -3 -3 -5 -5
0 0 0 0 0 0 0 0 0 0 0 0 0 0 0 0 0 0 0 0 0 0 0 0 0 0 0 0 0 0 -21 0 0 0 -4 0 -30 -30 -23 -4 -3 -2 -4 -3 -4
0 0 0 0 0 0 0 0 0 0 0 0 0 0 0 0 0 0 0 0 0 0 0 0 0 0 0 0 0 -25 -39 -15 -10 0 -2 0 -12 -25 -24 -10 -2 -5 -1 -7 -3
0 0 0 0 0 0 0 0 0 0 0 0 0 0 0 0 0 0 0 0 0 0 0 0 0 0 0 -20 -14 -6 -22 -38 -7 -4 -1 -7 -7 -4 0 0 -4 -5 -4 -5 -2
0 0 0 0 0 0 0 0 0 0 0 0 0 0 0 0 0 0 0 0 0 0 0 0 0 -12 -1 0 0 0 0 -9 -7 0 0 -3 0 0 0 0 -3 -3 -1 -2 -1
0 0 0 0 0 0 0 0 0 0 0 0 0 0 0 0 0 0 0 0 0 0 0 0 0 -1 0 0 0 -1 -6 -23 -2 -1 0 0 0 -2 0 -12 -20 -3 -1 -3 -4
0 0 0 0 0 0 0 0 0 0 0 0 0 0 0 0 0 0 0 0 0 0 0 -3 0 0 0 0 -2 -18 -3 0 0 0 0 0 -5 -6 -4 -6 -18 -21 -4 -2 -3
0 0 0 0 0 0 0 0 0 0 0 0 0 0 0 0 0 0 0 0 0 0 0 -1 0 0 0 -6 0 -7 0 0 0 0 -11 0 -3 -4 -20 -4 -4 -3 -4 -7 -6
0 0 0 0 0 0 0 0 0 0 0 0 0 0 0 0 0 0 0 0 0 0 0 -4 0 0 -6 -10 0 0 0 0 0 0 -2 -8 0 -18 -3 -2 -7 -6 -5 -2 -4
0 0 0 0 0 0 0 0 0 0 0 0 0 0 0 0 0 0 0 0 0 0 0 -1 0 0 -4 0 0 0 -1 -4 -22 -7 -15 -42 0 -15 0 -11 -5 -4 -2 -4 -3
0 0 0 0 0 0 0 0 0 0 0 0 0 0 0 0 0 0 0 0 0 0 0 0 0 0 0 -1 -11 -14 -1 -13 -9 -27 -10 0 0 -24 0 0 0 0 -1 -7 -6
0 0 0 0 0 0 0 0 0 0 0 0 0 0 0 0 0 0 0 0 0 0 -10 -6 -4 0 0 0 -8 -3 -5 -7 -4 -7 -6 -1 -19 -17 0 0 0 0 0 0 -3
0 0 0 0 0 0 0 0 0 0 0 0 0 0 0 0 0 0 0 0 0 0 0 -5 -8 -1 0 0 0 -6 -86 -14 -10 -34 -8 -23 -11 -7 -1 -6 -3 -3 -3 -4 -8
0 0 0 0 0 0 0 0 0 0 0 0 0 0 0 0 0 0 0 0 0 0 -43 -2 -7 -8 0 0 -14 -4 0 -5 -7 -4 -8 -21 -6 0 0 0 0 0 -3 -4 -7
0 0 0 0 0 0 0 0 0 0 0 0 0 0 0 0 0 0 0 0 0 0 0 -2 -15 -55 -12 -10 -28 -16 -46 -8 -5 -6 -4 -9 -6 -23 0 0 0 0 -4 -3 -3
0 0 0 0 0 0 0 0 0 0 0 0 0 0 0 0 0 0 0 -11 -74 -28 0 -6 -4 -6 -180 -21 -6 -4 -7 -7 -4 -2 -5 -7 -8 -14 -4 -4 -6 0 -4 -9 -24
0 0 0 0 0 0 0 0 0 0 0 0 0 0 0 0 0 0 0 -75 -77 0 -6 -9 -3 -4 -6 -13 -37 0 -62 -3 -3 -3 -6 -7 -7 -5 -6 -6 -4 -2 -6 -4 -6
0 0 0 0 0 0 0 0 0 0 0 0 0 0 0 -3 -4 -11 -17 -66 -86 -39 0 -77 -6 -3 -7 -32 -6 -25 -5 -5 -3 -8 -5 -7 -5 -3 -6 -8 -4 -6 -5 -4 -3
0 0 0 0 0 0 0 0 0 0 0 0 0 0 0 -34 -2 -3 -2 -42 -65 -38 -82 -30 -7 -3 -3 -2 -3 -3 -3 -5 -4 -4 -5 -4 -5 -4 -7 -7 -3 -5 -5 -5 -4
0 0 0 0 0 0 0 0 0 0 0 0 0 0 0 -13 -3 -3 -3 -2 -4 -50 -26 -38 -5 -4 -2 -4 -2 -2 -3 -2 -4 -5 -4 -6 -4 -13 -8 -4 -2 -3 -5 -5 -4
0 0 0 0 0 0 0 0 0 0 0 0 0 -2 0 -10 -15 -31 -34 -38 -30 -16 -19 -20 -5 -6 -6 -2 -3 -3 -6 -7 -9 -7 -5 -4 -7 -4 -3 -2 -2 -2 -3 -4 -13
Wind_Speed
23 23 23 24 24 24 24 23 23 22 22 22 22 22 22 23 24 20 20 20 21 25 27 27 25 24 21 18 17 16 15 10 15 16 17 17 17 19 19 21 21 22 22 24 24
24 24 24 25 25 24 24 23 23 22 22 21 21 22 22 23 21 19 18 20 16 23 26 28 26 24 21 18 18 16 12 14 13 11 15 17 15 17 16 18 19 20 22 22 22
26 25 26 26 25 25 24 23 23 22 21 21 20 21 22 22 16 6 17 10 18 26 26 27 26 24 21 20 19 16 14 13 13 16 14 16 17 17 12 12 18 16 18 19 19
26 26 26 26 26 25 24 23 23 22 21 20 20 21 22 18 6 14 13 18 25 26 25 26 25 23 19 19 18 17 14 14 14 15 16 12 14 16 16 18 17 17 16 16 16
26 27 27 26 26 25 24 23 22 21 21 20 19 20 17 16 6 12 14 20 26 26 26 25 24 22 18 9 10 16 13 13 12 15 16 16 11 12 12 17 17 16 15 14 14
26 27 27 26 26 25 24 23 22 21 20 19 18 18 16 16 14 11 18 23 25 26 25 23 16 17 16 19 18 12 16 12 12 10 11 13 9 11 8 14 12 13 11 11 11
26 27 26 26 26 24 23 23 22 21 20 19 18 16 16 15 12 10 18 25 24 22 24 19 18 19 17 17 15 15 14 14 14 13 11 11 21 18 11 11 11 10 9 8 8
25 26 26 26 25 24 23 23 22 22 20 19 17 17 13 11 16 16 16 24 25 24 19 19 19 18 18 17 16 16 14 6 15 12 11 12 3 15 12 10 10 6 11 7 7
24 25 25 26 25 23 23 22 22 22 20 19 18 17 12 10 14 8 17 15 21 23 22 19 20 18 17 15 15 10 12 12 13 17 19 13 17 10 19 18 13 10 6 6 6
22 24 25 25 24 23 22 21 20 20 20 20 21 9 6 10 9 8 12 18 12 5 20 22 19 15 15 16 20 19 19 14 18 19 12 17 3 26 20 20 15 9 10 6 4
21 22 23 24 23 21 20 16 13 14 23 15 14 17 10 9 6 8 11 20 15 16 17 17 16 17 18 21 22 22 22 24 18 17 11 23 24 26 22 20 14 11 6 5 5
18 21 22 22 20 20 21 26 15 15 11 8 9 10 10 14 9 7 13 18 1 20 18 10 14 18 18 20 20 21 23 23 25 19 1 16 24 15 17 17 16 13 10 7 7
18 19 18 16 16 20 27 22 18 17 4 8 10 11 9 14 8 9 22 23 22 24 18 21 17 15 16 11 8 6 23 26 28 26 5 7 7 11 15 17 17 14 14 12 9
17 18 15 10 15 23 25 22 20 16 8 9 11 11 6 16 7 12 22 21 19 17 13 22 15 14 9 10 20 20 22 27 26 24 23 18 20 11 16 17 17 14 13 12 12
16 17 16 20 17 13 9 16 19 14 10 11 13 7 14 17 9 6 19 24 25 25 18 12 11 9 8 15 20 26 28 21 26 5 18 15 24 16 12 16 16 14 14 13 13
16 17 13 19 22 16 17 15 13 8 10 8 7 11 15 16 7 8 6 19 16 19 9 11 13 14 14 15 17 12 4 2 11 8 11 20 23 18 20 25 19 14 12 10 11
15 15 14 19 13 15 15 9 6 14 9 7 11 10 15 8 7 9 9 6 6 8 7 9 9 12 11 7 16 19 27 22 13 13 20 20 17 18 20 23 20 20 18 13 10
14 11 22 23 17 17 16 11 14 13 8 11 10 7 8 7 7 7 7 6 16 22 7 7 8 9 13 18 22 23 22 22 24 25 26 20 17 17 18 20 18 18 17 17 13
14 18 20 16 18 18 20 9 14 7 13 12 5 9 9 9 8 6 10 17 13 6 20 13 12 11 17 14 15 14 18 20 20 6 21 16 21 20 15 20 20 22 17 16 15
18 17 11 15 16 19 21 17 13 13 18 9 6 15 8 7 6 4 5 11 13 17 15 16 12 11 13 10 15 15 22 19 24 23 28 32 25 19 24 29 32 29 27 25 23
18 16 11 16 18 20 19 14 12 12 15 16 14 4 3 9 9 5 5 11 14 9 12 18 12 16 10 9 10 11 16 18 21 21 27 28 30 26 28 31 31 30 29 25 22
18 17 9 15 12 18 22 12 14 15 14 15 18 18 17 11 2 6 8 12 13 14 10 12 16 19 16 13 23 17 18 21 25 30 25 18 22 27 29 29 28 27 25 25 23
19 15 13 19 17 16 14 14 18 19 16 14 11 16 15 10 12 16 12 14 13 13 15 13 11 10 11 11 27 15 15 22 19 19 26 25 22 35 28 26 26 25 25 22 21
18 15 11 19 26 23 20 23 16 16 19 15 15 13 10 9 14 10 11 12 12 13 14 14 14 15 26 15 13 16 17 18 21 21 30 29 34 32 25 26 26 27 24 24 24
19 18 15 14 25 22 12 14 12 10 14 12 10 14 10 10 9 10 10 9 11 11 11 12 12 13 20 23 21 22 24 22 24 27 27 29 30 31 25 26 23 24 25 25 28
20 19 18 16 18 16 13 12 13 12 11 9 13 8 12 13 14 12 9 12 11 10 11 12 15 18 19 16 19 23 26 20 18 21 26 25 26 22 27 23 24 24 24 27 30
18 18 19 14 15 14 10 14 13 13 10 18 11 15 12 13 14 14 14 15 15 16 12 14 16 16 20 17 24 25 22 21 22 23 30 31 29 26 23 23 24 22 25 29 30
Wind_Direction
265 265 270 261 267 260 263 262 260 257 257 257 261 264 266 268 266 228 209 229 235 224 213 206 208 211 214 207 194 192 204 114 23 360 57 64 68 61 53 68 62 52 32 74 86
262 264 265 260 262 257 262 258 258 255 258 258 260 265 269 275 253 211 244 269 173 182 176 181 188 197 195 196 193 200 190 333 312 2 3 51 43 59 99 82 75 74 63 77 93
257 263 259 256 258 255 257 255 256 255 258 257 257 264 269 275 212 279 292 66 124 154 176 177 186 186 187 188 170 196 284 331 5 310 269 33 66 61 64 278 78 81 84 92 95
257 259 256 253 255 251 252 252 255 255 255 254 256 265 269 217 258 329 358 107 144 182 171 165 171 160 164 148 182 180 288 265 352 36 187 118 13 50 61 112 16 57 79 96 100
256 255 252 249 250 247 248 251 254 252 251 251 255 268 259 145 294 353 64 113 146 162 163 153 155 165 168 118 108 168 349 273 22 140 195 311 90 110 6 41 55 47 69 100 101
254 251 246 247 244 242 246 248 248 250 245 248 253 260 192 179 298 36 109 126 153 164 171 182 206 237 225 181 171 348 269 317 120 50 79 179 124 86 253 52 71 66 86 98 99
251 246 242 246 240 242 243 244 243 244 241 241 242 240 181 323 280 32 108 151 192 197 173 215 218 185 200 110 150 155 155 115 115 95 152 172 218 290 81 66 52 51 61 72 91
248 241 240 241 237 240 239 239 239 235 235 230 224 205 267 328 238 191 107 186 185 192 215 215 205 192 168 190 153 159 190 87 359 46 41 198 108 121 215 33 24 66 28 57 72
246 241 239 233 236 238 237 237 232 229 212 213 198 135 44 9 124 335 108 213 215 207 194 207 183 175 150 160 169 179 78 31 27 358 307 190 279 54 352 348 351 2 34 50 59
247 239 232 232 235 235 234 234 245 239 187 169 195 151 109 8 329 348 257 220 253 284 150 177 164 152 163 192 328 295 332 41 335 344 263 232 157 285 353 345 352 5 5 44 68
247 240 235 233 234 238 237 250 266 282 165 114 111 260 28 329 11 23 254 220 237 218 144 153 175 186 306 313 303 295 304 312 352 358 225 259 311 255 336 347 357 357 18 43 42
251 242 238 236 244 245 234 204 278 274 110 88 327 261 298 251 67 54 257 220 7 162 162 100 170 295 309 310 312 307 291 325 309 349 296 236 329 359 4 7 11 24 44 58 43
254 245 246 253 255 242 202 236 253 252 91 89 106 90 75 108 73 76 166 198 170 198 166 196 319 325 343 18 71 81 321 307 288 279 223 50 248 29 33 26 20 28 23 31 48
258 250 251 267 256 219 215 230 236 262 15 79 125 110 73 136 10 297 243 235 250 245 307 241 346 336 26 18 312 343 350 300 283 273 306 15 346 34 26 23 29 34 54 59 44
263 249 245 230 246 255 284 253 244 262 351 75 111 18 128 143 29 59 256 235 222 230 273 342 9 42 44 350 337 325 331 344 317 158 351 21 353 7 27 34 29 34 33 30 31
262 245 246 240 230 259 252 257 255 320 340 57 54 112 125 142 64 13 45 255 275 269 119 345 324 330 359 4 3 25 149 184 31 82 11 345 349 359 355 357 16 26 29 29 22
267 245 238 237 262 260 253 260 290 290 350 32 112 101 133 88 68 94 89 57 56 42 49 18 68 5 23 78 28 358 325 338 11 6 352 2 5 10 4 3 5 4 7 12 10
268 251 230 231 252 251 244 262 278 307 330 304 300 92 107 88 88 74 68 55 281 259 58 62 18 66 31 352 332 354 1 351 332 334 332 8 2 9 9 11 12 10 9 5 358
262 243 240 249 251 246 236 273 289 312 300 311 56 116 120 108 316 86 116 286 322 -0 283 331 352 15 356 17 25 24 11 10 2 25 353 13 358 14 30 19 18 5 4 359 357
250 245 260 257 255 245 246 276 288 290 271 317 350 145 112 109 89 72 18 321 321 289 304 324 344 18 30 47 20 297 5 7 356 350 338 326 352 354 345 351 347 350 350 353 359
247 252 272 252 251 246 259 280 282 283 277 266 293 344 147 120 125 85 19 348 310 342 315 312 338 347 34 49 44 47 16 13 5 3 346 342 335 350 343 343 346 348 351 355 5
253 257 275 251 258 253 254 276 271 269 284 279 270 272 275 301 34 335 338 341 320 315 344 330 328 334 341 355 335 345 346 3 353 340 351 355 356 352 352 354 358 1 8 8 8
253 276 264 244 255 258 272 273 262 260 275 290 311 289 281 309 300 288 313 326 323 327 322 337 351 355 356 13 341 259 3 356 4 2 346 344 347 345 353 1 6 9 5 8 13
258 261 269 249 250 253 254 255 266 274 274 287 294 297 310 326 296 313 316 325 328 326 324 326 330 329 305 355 7 357 357 359 355 350 341 339 335 341 356 359 357 358 3 4 5
256 265 265 256 246 250 273 275 274 289 282 294 306 292 310 315 322 322 330 345 342 344 342 336 336 338 329 330 335 337 337 342 342 340 340 341 341 345 353 355 2 5 6 6 1
257 263 258 273 264 261 274 280 282 281 286 291 295 303 305 306 304 315 328 327 345 351 343 340 337 331 331 337 338 335 332 337 343 350 342 344 347 11 349 359 3 2 4 1 357
268 267 261 273 269 266 274 281 283 290 284 290 287 290 294 306 308 315 318 320 326 323 335 334 333 337 330 340 333 330 339 346 344 345 340 337 343 347 356 359 360 6 3 355 360